Location: Akho
(42.3047°N, 44.1844°E)
Time: 05:52:57
(UTC+00:00)

STARLINK-81 - Pass Details

Date: 07 June 2020
Orbit: 434 x 435 km, 53.0° (Epoch: 05 July)

Event Time Altitude Azimuth Distance (km) Brightness Sun altitude
Exits shadow 22:43:00 15° 114° (ESE) 1,279 5.5 -20.9°
Drops below altitude 10° 22:44:24 10° 91° (E) 1,543 6.2 -20.8°
Enters shadow 23:40:36 -71° 234° (SW) 12,482 10.4 -15.4°
Maximum altitude 00:18:58 64° 326° (NW) 488 3.4 -10.7°
